When you browse on this site, cookies collect data to enhance your experience and personalize the content and advertising you see.
Visit our Privacy Policy to learn more. By continuing to use the site, you agree to this use of cookies and data.
  • In Hungary
  • List of Countries
  • For 7 days
  • Water Temperature
  • Weather Map
  • News
  • Weather Widgets
  • user-avatar
    Login

    Hourly Weather Budapest

    Today, 30 May, Saturday

    Time Temperature Precipitation Wind Pressure Humidity
    00:00 +13°C° 0 mm 1 mps 755 mmHg 75%
    01:00 +13°C° 0 mm 1 mps 755 mmHg 74%
    02:00 +13°C° 0 mm 1 mps 755 mmHg 74%
    03:00 +13°C° 0 mm 1 mps 754 mmHg 74%
    04:00 +12°C° 0 mm 2 mps 754 mmHg 74%
    05:00 +13°C° 0 mm 2 mps 754 mmHg 72%
    06:00 +13°C° 0 mm 2 mps 754 mmHg 70%
    07:00 +14°C° 0 mm 2 mps 754 mmHg 68%
    08:00 +14°C° 0.1 mm 3 mps 754 mmHg 64%
    09:00 +14°C° 0.1 mm 3 mps 754 mmHg 61%
    10:00 +16°C° 0.1 mm 3 mps 754 mmHg 57%
    11:00 +17°C° 0.1 mm 3 mps 754 mmHg 53%
    12:00 +18°C° 0.1 mm 3 mps 754 mmHg 50%
    13:00 +19°C° 0.1 mm 3 mps 753 mmHg 46%
    14:00 +19°C° 0.1 mm 3 mps 753 mmHg 48%
    15:00 +19°C° 0.1 mm 3 mps 753 mmHg 50%
    16:00 +18°C° 0.1 mm 3 mps 752 mmHg 51%
    17:00 +17°C° 0.1 mm 3 mps 752 mmHg 57%
    18:00 +16°C° 0.1 mm 3 mps 752 mmHg 63%
    19:00 +15°C° 0.1 mm 2 mps 752 mmHg 70%
    20:00 +14°C° 0 mm 2 mps 752 mmHg 72%
    21:00 +13°C° 0 mm 2 mps 753 mmHg 74%
    22:00 +12°C° 0 mm 2 mps 753 mmHg 77%
    23:00 +12°C° 0 mm 2 mps 753 mmHg 78%

    Tomorrow, 31 May, Sunday

    Time Temperature Precipitation Wind Pressure Humidity
    00:00 +10°C° 0 mm 3 mps 753 mmHg 78%
    01:00 +10°C° 0 mm 3 mps 752 mmHg 79%
    02:00 +10°C° 0 mm 3 mps 752 mmHg 81%
    03:00 +10°C° 0 mm 4 mps 752 mmHg 82%
    04:00 +10°C° 0 mm 4 mps 752 mmHg 84%
    05:00 +10°C° 0 mm 5 mps 752 mmHg 78%
    06:00 +11°C° 0 mm 6 mps 752 mmHg 72%
    07:00 +12°C° 0 mm 7 mps 752 mmHg 66%
    08:00 +12°C° 0 mm 7 mps 752 mmHg 68%
    09:00 +12°C° 0 mm 8 mps 752 mmHg 69%
    10:00 +12°C° 0 mm 8 mps 752 mmHg 71%
    11:00 +12°C° 0 mm 8 mps 752 mmHg 73%
    12:00 +11°C° 0 mm 8 mps 752 mmHg 75%
    13:00 +11°C° 0 mm 8 mps 752 mmHg 78%
    14:00 +12°C° 0 mm 8 mps 752 mmHg 76%
    15:00 +12°C° 0 mm 8 mps 751 mmHg 74%
    16:00 +13°C° 0 mm 8 mps 751 mmHg 72%
    17:00 +12°C° 0 mm 7 mps 751 mmHg 74%
    18:00 +13°C° 0 mm 6 mps 751 mmHg 75%
    19:00 +13°C° 0 mm 5 mps 751 mmHg 77%
    20:00 +13°C° 0 mm 4 mps 751 mmHg 77%
    21:00 +12°C° 0 mm 4 mps 751 mmHg 77%
    22:00 +12°C° 0 mm 4 mps 751 mmHg 77%
    23:00 +12°C° 0 mm 3 mps 751 mmHg 78%

    Day after tomorrow, 1 June, Monday

    Time Temperature Precipitation Wind Pressure Humidity
    00:00 +12°C° 0 mm 3 mps 751 mmHg 78%
    01:00 +12°C° 0 mm 3 mps 751 mmHg 79%
    02:00 +12°C° 0 mm 3 mps 751 mmHg 79%
    03:00 +12°C° 0 mm 3 mps 751 mmHg 79%
    04:00 +12°C° 0 mm 3 mps 751 mmHg 80%
    05:00 +12°C° 0 mm 3 mps 751 mmHg 77%
    06:00 +13°C° 0 mm 3 mps 752 mmHg 74%
    07:00 +14°C° 0 mm 3 mps 752 mmHg 71%
    08:00 +15°C° 0 mm 4 mps 752 mmHg 63%
    09:00 +17°C° 0 mm 5 mps 753 mmHg 55%
    10:00 +20°C° 0 mm 6 mps 753 mmHg 47%
    11:00 +20°C° 0 mm 5 mps 753 mmHg 47%
    12:00 +21°C° 0 mm 4 mps 753 mmHg 46%
    13:00 +21°C° 0 mm 4 mps 753 mmHg 45%
    14:00 +21°C° 0 mm 3 mps 753 mmHg 46%
    15:00 +21°C° 0 mm 3 mps 753 mmHg 47%
    16:00 +21°C° 0 mm 2 mps 752 mmHg 48%
    17:00 +19°C° 0 mm 2 mps 753 mmHg 53%
    18:00 +18°C° 0 mm 3 mps 753 mmHg 57%
    19:00 +17°C° 0 mm 3 mps 753 mmHg 61%
    20:00 +16°C° 0 mm 3 mps 753 mmHg 61%
    21:00 +15°C° 0 mm 4 mps 754 mmHg 60%
    22:00 +14°C° 0 mm 4 mps 754 mmHg 60%
    23:00 +13°C° 0 mm 3 mps 754 mmHg 60%

    2 June, Tuesday

    Time Temperature Precipitation Wind Pressure Humidity
    00:00 +13°C° 0 mm 3 mps 754 mmHg 60%
    01:00 +12°C° 0 mm 3 mps 754 mmHg 60%
    02:00 +13°C° 0 mm 2 mps 754 mmHg 61%
    03:00 +13°C° 0 mm 2 mps 754 mmHg 62%
    04:00 +12°C° 0 mm 2 mps 754 mmHg 62%
    05:00 +13°C° 0 mm 2 mps 754 mmHg 62%
    06:00 +14°C° 0 mm 2 mps 754 mmHg 61%
    07:00 +14°C° 0 mm 2 mps 754 mmHg 60%
    08:00 +15°C° 0.1 mm 2 mps 754 mmHg 57%
    09:00 +17°C° 0.1 mm 3 mps 754 mmHg 54%
    10:00 +18°C° 0.1 mm 3 mps 754 mmHg 51%
    11:00 +18°C° 0.1 mm 3 mps 753 mmHg 49%
    12:00 +19°C° 0.1 mm 4 mps 753 mmHg 47%
    13:00 +20°C° 0.1 mm 4 mps 752 mmHg 45%
    14:00 +20°C° 0.1 mm 4 mps 752 mmHg 47%
    15:00 +19°C° 0.1 mm 4 mps 751 mmHg 49%
    16:00 +19°C° 0.1 mm 4 mps 750 mmHg 52%
    17:00 +18°C° 0.2 mm 4 mps 750 mmHg 58%
    18:00 +17°C° 0.2 mm 4 mps 750 mmHg 64%
    19:00 +14°C° 0.2 mm 3 mps 750 mmHg 70%
    20:00 +13°C° 0 mm 3 mps 750 mmHg 74%
    21:00 +13°C° 0 mm 2 mps 750 mmHg 78%
    22:00 +12°C° 0 mm 1 mps 750 mmHg 82%
    23:00 +12°C° 0 mm 1 mps 750 mmHg 82%

    3 June, Wednesday

    Time Temperature Precipitation Wind Pressure Humidity
    00:00 +11°C° 0 mm 1 mps 749 mmHg 83%
    01:00 +10°C° 0 mm 0 mps 749 mmHg 83%
    02:00 +10°C° 0 mm 0 mps 749 mmHg 83%
    03:00 +10°C° 0 mm 0 mps 749 mmHg 84%
    04:00 +9°C° 0 mm 0 mps 749 mmHg 84%
    05:00 +12°C° 0 mm 1 mps 749 mmHg 78%
    06:00 +13°C° 0 mm 1 mps 749 mmHg 73%
    07:00 +15°C° 0 mm 1 mps 749 mmHg 67%
    08:00 +16°C° 0 mm 2 mps 749 mmHg 62%
    09:00 +17°C° 0 mm 2 mps 749 mmHg 56%
    10:00 +19°C° 0 mm 3 mps 749 mmHg 51%
    11:00 +20°C° 0 mm 3 mps 748 mmHg 47%
    12:00 +20°C° 0 mm 3 mps 748 mmHg 44%
    13:00 +21°C° 0 mm 2 mps 747 mmHg 40%
    14:00 +21°C° 0 mm 3 mps 747 mmHg 40%
    15:00 +21°C° 0 mm 3 mps 747 mmHg 40%
    16:00 +21°C° 0 mm 3 mps 746 mmHg 40%
    17:00 +20°C° 0 mm 3 mps 746 mmHg 46%
    18:00 +19°C° 0 mm 3 mps 746 mmHg 53%
    19:00 +17°C° 0 mm 2 mps 746 mmHg 59%
    20:00 +16°C° 0 mm 2 mps 746 mmHg 63%
    21:00 +15°C° 0 mm 2 mps 746 mmHg 66%
    22:00 +14°C° 0 mm 2 mps 746 mmHg 70%
    23:00 +14°C° 0 mm 2 mps 746 mmHg 73%

    4 June, Thursday

    Time Temperature Precipitation Wind Pressure Humidity
    00:00 +13°C° 0 mm 1 mps 746 mmHg 76%
    01:00 +13°C° 0 mm 1 mps 746 mmHg 79%
    02:00 +13°C° 0 mm 1 mps 745 mmHg 78%
    03:00 +14°C° 0 mm 1 mps 745 mmHg 76%
    04:00 +14°C° 0 mm 1 mps 745 mmHg 75%
    05:00 +15°C° 0 mm 2 mps 745 mmHg 75%
    06:00 +15°C° 0 mm 2 mps 745 mmHg 75%
    07:00 +16°C° 0 mm 3 mps 745 mmHg 74%
    08:00 +17°C° 0 mm 3 mps 745 mmHg 73%
    09:00 +17°C° 0 mm 3 mps 745 mmHg 72%
    10:00 +18°C° 0 mm 4 mps 745 mmHg 70%
    11:00 +19°C° 0 mm 4 mps 745 mmHg 70%
    12:00 +19°C° 0 mm 4 mps 744 mmHg 70%
    13:00 +20°C° 0 mm 4 mps 744 mmHg 70%
    14:00 +21°C° 0.1 mm 4 mps 744 mmHg 67%
    15:00 +22°C° 0.1 mm 4 mps 744 mmHg 64%
    16:00 +23°C° 0.1 mm 5 mps 743 mmHg 60%
    17:00 +22°C° 0.4 mm 5 mps 743 mmHg 66%
    18:00 +21°C° 0.4 mm 5 mps 743 mmHg 72%
    19:00 +20°C° 0.4 mm 5 mps 743 mmHg 78%
    20:00 +19°C° 0 mm 4 mps 743 mmHg 80%
    21:00 +19°C° 0 mm 4 mps 743 mmHg 81%
    22:00 +18°C° 0 mm 4 mps 743 mmHg 83%
    23:00 +18°C° 0 mm 4 mps 743 mmHg 82%
    Show more